Stations météo

réclame
Mon MeteoGroup
London/Heathrow Intl, Grande-Bretagne (3772): Température de l'air & dewpoint: 11.02.2019 14:00:00 - 17.02.2019 14:00:00 (GMT)London/Heathrow Intl, Grande-Bretagne (3772): Vitesse du vent: 11.02.2019 14:00:00 - 17.02.2019 14:00:00 (GMT)London/Heathrow Intl, Grande-Bretagne (3772): Direction du vent: 11.02.2019 14:00:00 - 17.02.2019 14:00:00 (GMT)London/Heathrow Intl, Grande-Bretagne (3772): reduced air pressure: 11.02.2019 14:00:00 - 17.02.2019 14:00:00 (GMT)London/Heathrow Intl, Grande-Bretagne (3772): visibility: 11.02.2019 14:00:00 - 17.02.2019 14:00:00 (GMT)London/Heathrow Intl, Grande-Bretagne (3772): Ensoleillement: 11.02.2019 14:00:00 - 17.02.2019 14:00:00 (GMT)London/Heathrow Intl, Grande-Bretagne (3772): Quantités de précipitations: 11.02.2019 14:00:00 - 17.02.2019 14:00:00 (GMT)
Date & Time tt [°C] td [°C] ff [km/h] ff [knt] dd ppp [hPa] vv [km] sd [min] rr [mm]
17.02.2019 14:00:00 14,5 7,8 21 11 SW 1014,0 10 54 0,0
17.02.2019 13:00:00 14,8 7,3 18 10 SSW 1014,3 10 60 0,0
17.02.2019 12:00:00 13,3 6,1 24 13 SSW 1014,6 10 60 -
17.02.2019 11:00:00 12,1 5,9 22 12 S 1014,6 25 60 -
17.02.2019 10:00:00 10,1 6,0 16 9 SSE 1014,6 16 48 0,0
17.02.2019 09:00:00 8,1 5,8 13 7 SE 1014,9 10 18 0,0
17.02.2019 08:00:00 6,9 5,4 16 9 SSE 1015,6 10 0 0,0
17.02.2019 07:00:00 6,3 5,2 13 7 S 1015,7 6 0 0,0
17.02.2019 06:00:00 5,2 4,9 11 6 SSE 1015,9 4,5 0 0,0
17.02.2019 05:00:00 4,8 4,5 9 5 SE 1016,4 4,8 0 0,0
17.02.2019 04:00:00 4,8 4,5 9 5 SE 1017,2 4,5 0 0,0
17.02.2019 03:00:00 5,1 5,0 11 6 SE 1018,1 6 0 0,0
17.02.2019 02:00:00 6,9 6,7 9 5 SE 1019,1 0,1 0 0,0
17.02.2019 01:00:00 7,2 6,2 5 3 SSE 1020,0 2,9 0 0,0
17.02.2019 00:00:00 9,3 8,2 9 5 SSE 1020,6 6 - 0,0
16.02.2019 23:00:00 9,6 8,5 5 3 SE 1021,0 8 0 0,0
16.02.2019 22:00:00 10,1 9,0 8 4 SSE 1021,3 8 0 0,0
16.02.2019 21:00:00 10,3 9,1 11 6 S 1021,7 8 0 0,0
16.02.2019 20:00:00 10,4 9,2 9 5 - 1022,1 7 0 0,0
16.02.2019 19:00:00 10,6 9,5 13 7 S 1022,3 7 0 0,0
16.02.2019 18:00:00 10,9 9,8 16 9 S 1022,1 5 0 0,0
16.02.2019 17:00:00 11,2 9,8 15 8 S 1022,0 10 0 0,0
16.02.2019 16:00:00 11,5 9,9 16 9 S 1022,1 8 0 0,0
16.02.2019 15:00:00 11,8 10,0 15 8 SSW 1022,6 10 0 0,0
16.02.2019 14:00:00 11,7 10,0 18 10 SSW 1022,9 9 0 0,0
16.02.2019 13:00:00 11,4 9,8 15 8 S 1023,3 8 0 0,0
16.02.2019 12:00:00 11,2 9,9 16 9 SSW 1023,7 6 0 0,0
16.02.2019 11:00:00 10,5 9,5 15 8 S 1023,8 5 0 0,0
16.02.2019 10:00:00 9,6 8,7 16 9 SSW 1023,5 3,6 0 0,0
16.02.2019 09:00:00 9,2 8,3 15 8 SSW 1023,3 3,6 0 0,0
16.02.2019 08:00:00 8,9 8,1 13 7 SSW 1023,2 3,0 0 0,0
16.02.2019 07:00:00 7,4 6,8 11 6 S 1023,0 2,9 0 0,0
16.02.2019 06:00:00 6,1 5,5 4 2 - 1022,7 3,2 0 0,0
16.02.2019 05:00:00 5,0 4,4 11 6 S 1022,4 2,6 0 0,0
16.02.2019 04:00:00 3,9 3,0 5 3 SSW 1022,3 2,9 0 0,0
16.02.2019 03:00:00 5,0 3,9 8 4 WSW 1022,7 3,2 0 0,0
16.02.2019 02:00:00 4,5 3,9 5 3 - 1023,1 4,7 0 0,0
16.02.2019 01:00:00 4,4 3,2 5 3 - 1023,4 5 0 0,0
16.02.2019 00:00:00 3,7 2,1 5 3 SE 1023,7 6 - 0,0
15.02.2019 23:00:00 5,9 3,9 5 3 - 1023,9 7 0 0,0
15.02.2019 22:00:00 6,5 3,6 9 5 SW 1024,3 8 0 0,0
15.02.2019 21:00:00 7,2 3,2 11 6 SW 1024,6 10 0 0,0
15.02.2019 20:00:00 8,6 1,7 13 7 SSW 1024,6 21 0 0,0
15.02.2019 19:00:00 9,8 1,8 16 9 S 1024,8 10 0 0,0
15.02.2019 18:00:00 10,7 3,4 9 5 SSE 1024,9 10 0 0,0
15.02.2019 17:00:00 12,1 3,6 11 6 SSW 1024,9 10 48 0,0
15.02.2019 16:00:00 13,8 3,6 15 8 SW 1024,9 10 60 0,0
15.02.2019 15:00:00 14,3 4,2 16 9 SW 1025,6 10 60 0,0
15.02.2019 14:00:00 14,3 4,8 15 8 SSW 1026,2 10 60 0,0
15.02.2019 13:00:00 12,8 5,3 13 7 SSW 1026,9 10 60 0,0
15.02.2019 12:00:00 11,2 5,9 9 5 S 1027,6 13 60 0,0
15.02.2019 11:00:00 9,0 5,1 8 4 SSW 1028,2 8 60 0,0
15.02.2019 10:00:00 6,7 4,2 9 5 S 1028,2 5 60 0,0
15.02.2019 09:00:00 5,1 4,2 9 5 S 1028,4 3,0 36 0,2
15.02.2019 08:00:00 3,2 2,8 11 6 S 1028,5 2,5 0 0,0
15.02.2019 07:00:00 3,2 3,1 9 5 S 1028,3 2,5 0 0,0
15.02.2019 06:00:00 2,2 2,0 4 2 SSE 1028,5 2,0 0 0,0
15.02.2019 05:00:00 1,7 1,4 5 3 - 1028,6 3,0 0 0,0
15.02.2019 04:00:00 2,1 1,7 5 3 SE 1028,7 3,5 0 0,0
15.02.2019 03:00:00 2,2 1,6 4 2 ESE 1029,1 4,0 0 0,0
15.02.2019 02:00:00 2,4 1,2 4 2 E 1029,7 9 0 0,0
15.02.2019 01:00:00 2,7 1,2 2 1 E 1029,9 8 0 0,0
15.02.2019 00:00:00 3,7 1,6 4 2 NE 1029,9 10 - 0,0
14.02.2019 23:00:00 4,3 2,3 2 1 - 1030,2 10 0 0,0
14.02.2019 22:00:00 5,5 1,9 11 6 SSE 1030,3 14 0 0,0
14.02.2019 21:00:00 6,8 2,5 8 4 SSE 1030,3 10 0 0,0
14.02.2019 20:00:00 8,1 3,2 13 7 SSE 1030,2 19 0 0,0
14.02.2019 19:00:00 7,6 2,6 11 6 SE 1030,5 21 0 0,0
14.02.2019 18:00:00 8,9 3,4 9 5 SE 1030,4 10 0 0,0
14.02.2019 17:00:00 11,2 3,4 15 8 SSE 1030,3 28 48 0,0
14.02.2019 16:00:00 12,8 4,7 13 7 SSE 1030,4 30 60 0,0
14.02.2019 15:00:00 13,3 4,2 9 5 S 1030,9 10 60 0,0
14.02.2019 14:00:00 13,8 3,5 11 6 SE 1031,3 25 60 0,0
14.02.2019 13:00:00 13,0 4,1 8 4 SSE 1032,0 10 60 0,0
14.02.2019 12:00:00 10,8 4,3 9 5 S 1032,8 10 60 0,0
14.02.2019 11:00:00 9,1 4,7 8 4 SSE 1033,2 10 60 0,0
14.02.2019 10:00:00 7,7 4,7 8 4 SW 1033,1 8 60 0,0
14.02.2019 09:00:00 4,9 4,6 8 4 S 1033,2 3,7 36 0,0
14.02.2019 08:00:00 2,0 1,7 4 2 - 1033,0 5 0 0,0
14.02.2019 07:00:00 1,4 1,1 5 3 - 1032,7 3,0 0 0,0
14.02.2019 06:00:00 1,6 1,3 4 2 - 1032,9 4,0 0 0,0
14.02.2019 05:00:00 1,9 1,7 5 3 - 1033,0 2,9 0 0,0
14.02.2019 04:00:00 1,9 1,6 4 2 NE 1032,9 1,1 0 0,0
14.02.2019 03:00:00 1,4 0,8 5 3 ENE 1032,9 4,0 0 0,0
14.02.2019 02:00:00 2,5 2,1 4 2 NE 1032,9 4,0 0 0,0
14.02.2019 01:00:00 3,3 2,6 2 1 NE 1032,9 5 0 0,0
14.02.2019 00:00:00 4,0 3,3 4 2 - 1033,0 6 - 0,0
13.02.2019 23:00:00 5,2 4,0 9 5 SW 1032,7 10 0 0,0
13.02.2019 22:00:00 5,8 4,5 11 6 SSW 1032,7 11 0 0,0
13.02.2019 21:00:00 5,9 4,1 8 4 SSW 1032,7 10 0 0,0
13.02.2019 20:00:00 6,6 4,6 11 6 S 1032,7 10 0 0,0
13.02.2019 19:00:00 7,2 4,2 13 7 S 1032,7 10 0 0,0
13.02.2019 18:00:00 8,3 4,3 15 8 S 1032,2 26 0 0,0
13.02.2019 17:00:00 9,8 4,2 18 10 SSW 1032,2 10 0 0,0
13.02.2019 16:00:00 11,0 4,5 16 9 SSW 1032,6 30 30 0,0
13.02.2019 15:00:00 12,1 5,2 21 11 SW 1032,3 10 60 0,0
13.02.2019 14:00:00 12,1 5,6 22 12 SSW 1032,7 22 54 0,0
13.02.2019 13:00:00 10,9 6,5 18 10 SSW 1033,0 10 24 0,0
13.02.2019 12:00:00 9,9 6,8 16 9 S 1033,3 25 0 0,0
13.02.2019 11:00:00 8,5 6,6 15 8 S 1033,4 10 0 0,0
13.02.2019 10:00:00 7,1 6,0 11 6 S 1033,8 9 0 0,0
13.02.2019 09:00:00 6,7 5,7 9 5 S 1033,7 7 0 0,0
13.02.2019 08:00:00 6,5 5,8 11 6 S 1033,3 8 0 0,0
13.02.2019 07:00:00 6,6 5,7 13 7 S 1033,3 8 0 0,0
13.02.2019 06:00:00 7,4 6,4 13 7 S 1033,3 10 0 0,0
13.02.2019 05:00:00 7,6 6,7 13 7 SSW 1033,4 10 0 0,0
13.02.2019 04:00:00 7,3 6,5 15 8 S 1033,3 9 0 0,0
13.02.2019 03:00:00 6,7 6,1 11 6 SSW 1033,7 8 0 0,0
13.02.2019 02:00:00 6,1 5,6 5 3 SW 1033,9 6 0 0,0
13.02.2019 01:00:00 5,8 5,1 11 6 SSW 1034,0 7 0 0,0
13.02.2019 00:00:00 6,4 5,7 9 5 SSW 1034,0 9 - 0,0
12.02.2019 23:00:00 6,9 5,6 11 6 SW 1034,0 10 0 0,0
12.02.2019 22:00:00 7,3 5,5 13 7 SSW 1033,9 10 0 0,0
12.02.2019 21:00:00 8,0 6,0 13 7 SW 1033,8 10 0 0,0
12.02.2019 20:00:00 8,2 5,7 15 8 SSW 1033,5 10 0 0,0
12.02.2019 19:00:00 9,3 5,6 15 8 SW 1033,6 10 0 0,0
12.02.2019 18:00:00 9,8 5,6 15 8 SW 1033,4 10 0 0,0
12.02.2019 17:00:00 10,2 5,2 16 9 SW 1032,8 10 0 0,0
12.02.2019 16:00:00 10,5 4,9 22 12 W 1033,0 10 12 0,0
12.02.2019 15:00:00 11,2 5,2 22 12 WSW 1033,0 10 36 0,0
12.02.2019 14:00:00 11,0 5,6 21 11 WSW 1032,8 10 36 0,0
12.02.2019 13:00:00 11,0 5,7 21 11 WSW 1032,8 10 48 0,0
12.02.2019 12:00:00 10,5 6,6 24 13 WSW 1033,4 10 24 0,0
12.02.2019 11:00:00 8,1 6,1 13 7 SSW 1033,9 13 0 0,0
12.02.2019 10:00:00 6,7 5,8 16 9 WSW 1033,8 8 0 0,0
12.02.2019 09:00:00 4,8 3,8 9 5 SW 1033,6 8 0 0,0
12.02.2019 08:00:00 4,1 2,6 11 6 SW 1033,2 14 0 0,0
12.02.2019 07:00:00 2,8 1,0 9 5 WSW 1032,8 30 0 0,0
12.02.2019 06:00:00 2,5 0,5 8 4 SW 1032,6 10 0 0,0
12.02.2019 05:00:00 2,8 1,0 9 5 SW 1032,8 30 0 0,0
12.02.2019 04:00:00 2,4 0,5 2 1 SW 1032,7 10 0 0,0
12.02.2019 03:00:00 3,7 1,6 5 3 S 1033,1 10 0 0,0
12.02.2019 02:00:00 2,6 1,0 5 3 SW 1033,3 24 0 0,0
12.02.2019 01:00:00 2,9 1,2 2 1 SW 1033,4 10 0 0,0
12.02.2019 00:00:00 3,5 1,4 4 2 - 1032,7 10 - 0,0
11.02.2019 23:00:00 4,6 1,4 8 4 SW 1032,6 10 0 0,0
11.02.2019 22:00:00 6,1 1,6 9 5 S 1032,2 10 0 0,0
11.02.2019 21:00:00 7,1 1,1 8 4 SW 1032,0 10 0 0,0
11.02.2019 20:00:00 7,7 1,9 11 6 W 1031,9 10 0 0,0
11.02.2019 19:00:00 7,8 1,9 5 3 - 1031,3 10 0 0,0
11.02.2019 18:00:00 7,1 1,5 4 2 - 1030,5 10 0 0,0
11.02.2019 17:00:00 8,3 1,5 4 2 NNW 1029,6 45 12 0,0
11.02.2019 16:00:00 8,8 1,8 8 4 N 1028,9 10 0 0,0
11.02.2019 15:00:00 8,8 1,7 9 5 NNW 1028,1 10 6 0,0
11.02.2019 14:00:00 8,6 2,1 11 6 NNW 1027,3 40 6 0,0

tt = Température de l'air
td = dewpoint
ff = Vitesse du vent
dd = Direction du vent
ppp = reduced air pressure
vv = visibility
sd = Ensoleillement
rr = Quantités de précipitations

stations d'obs. à proximité